CW1203 Weather Reports


time (UTC)temp
C
wind
direction
speed
KPH
gust
KPH
rain 1hr
cm
rain 24hr
cm
rain mn
cm
humidity
%
barometer
mb
20260509011502 13 333 0.0 0.0 0.00 0.00 0.00 78 1013.2
20260509010001 13 232 0.0 0.0 0.00 0.00 0.00 77 1013.0
20260509004507 13 340 0.0 0.0 0.00 0.00 0.00 76 1013.0
20260509003102 13 30 0.0 0.0 0.00 0.00 0.00 76 1012.9
20260509001600 13 207 0.0 0.0 0.00 0.00 0.00 77 1012.9
20260509000100 13 207 0.0 0.0 0.00 0.00 0.00 75 1012.7
20260508234559 15 203 0.0 0.0 0.00 0.00 0.00 75 1012.7
20260508233132 15 202 0.0 0.0 0.00 0.00 0.00 74 1012.9
20260508231606 15 303 0.0 0.0 0.00 0.00 0.00 73 1012.8
20260508224557 16 66 0.0 0.0 0.00 0.03 0.00 72 1012.8
20260508223057 16 208 0.0 1.6 0.00 0.03 0.00 69 1012.9
20260508221556 16 80 0.0 4.8 0.00 0.03 0.00 70 1012.9
20260508220156 16 244 0.0 1.6 0.00 0.03 0.00 67 1012.8
20260508214555 17 53 0.0 3.2 0.00 0.03 0.00 66 1012.8
20260508213054 17 314 0.0 1.6 0.00 0.03 0.00 67 1013.0
20260508211559 17 279 0.0 6.4 0.00 0.03 0.00 65 1012.9
20260508210108 17 297 0.0 9.7 0.00 0.03 0.00 64 1012.8
20260508204555 18 303 0.0 4.8 0.00 0.03 0.00 63 1012.7
20260508203053 18 340 0.0 3.2 0.00 0.03 0.00 64 1012.9
20260508201555 18 70 0.0 6.4 0.00 0.03 0.00 62 1013.1
20260508200055 17 307 0.0 4.8 0.00 0.03 0.00 64 1013.1
20260508194552 18 250 1.6 8.0 0.00 0.03 0.00 56 1013.4
20260508193054 18 337 0.0 3.2 0.00 0.03 0.00 58 1013.6
20260508191551 18 37 0.0 6.4 0.00 0.03 0.00 58 1013.9
20260508190100 18 252 0.0 3.2 0.00 0.03 0.00 58 1014.0
20260508184601 18 71 0.0 8.0 0.00 0.03 0.00 58 1014.4
20260508183046 17 39 0.0 3.2 0.00 0.03 0.00 59 1014.6
20260508181556 17 352 0.0 8.0 0.00 0.03 0.00 62 1014.9
20260508180045 17 291 1.6 14.5 0.00 0.03 0.00 62 1014.7
20260508174545 17 72 0.0 4.8 0.00 0.03 0.00 59 1014.9
20260508173046 16 268 1.6 8.0 0.00 0.03 0.00 59 1015.1
20260508171541 16 259 0.0 8.0 0.00 0.03 0.00 63 1015.2
20260508170042 16 198 0.0 6.4 0.00 0.03 0.00 63 1015.6
20260508164554 16 211 0.0 3.2 0.00 0.03 0.00 60 1015.8
20260508163039 16 349 0.0 6.4 0.00 0.03 0.00 59 1016.0
20260508161546 16 285 0.0 6.4 0.00 0.03 0.00 62 1016.0
20260508160037 16 43 0.0 4.8 0.00 0.03 0.00 62 1016.2
20260508154542 16 200 0.0 4.8 0.00 0.03 0.00 64 1016.3
20260508153036 16 221 0.0 4.8 0.00 0.03 0.00 58 1016.4
20260508151534 16 316 0.0 0.0 0.00 0.03 0.00 66 1016.4
20260508150033 15 238 0.0 3.2 0.00 0.03 0.00 68 1016.4
20260508144545 15 75 0.0 4.8 0.00 0.03 0.00 68 1016.3
20260508143024 14 352 0.0 4.8 0.00 0.03 0.00 66 1016.3
20260508141522 13 15 0.0 1.6 0.00 0.03 0.00 65 1016.4
20260508140021 13 329 0.0 0.0 0.00 0.03 0.00 74 1016.6
20260508134526 12 37 0.0 1.6 0.00 0.13 0.00 73 1016.7
20260508133019 12 44 0.0 0.0 0.00 0.13 0.00 76 1016.7
20260508131511 11 86 0.0 3.2 0.00 0.13 0.00 75 1016.6
20260508130007 11 23 0.0 3.2 0.00 0.20 0.00 78 1016.4
20260508124549 10 68 0.0 0.0 0.00 0.20 0.00 80 1016.5
20260508123058 10 359 0.0 1.6 0.00 0.20 0.00 82 1016.3
20260508121545 8 283 0.0 3.2 0.00 0.20 0.00 86 1016.1
20260508120043 8 91 0.0 0.0 0.00 0.20 0.00 89 1016.0
20260508114541 8 354 0.0 0.0 0.00 0.36 0.00 89 1015.7
20260508113053 7 89 0.0 0.0 0.00 0.36 0.00 90 1015.4
20260508111542 7 96 0.0 0.0 0.00 0.36 0.00 90 1015.0
20260508110048 7 113 0.0 0.0 0.00 0.36 0.00 91 1014.8
20260508104533 7 335 0.0 3.2 0.00 0.46 0.00 90 1014.6
20260508103029 7 11 0.0 4.8 0.00 0.46 0.00 92 1014.3
20260508101525 7 105 0.0 0.0 0.00 0.46 0.00 89 1013.9
20260508100022 8 195 0.0 3.2 0.00 0.46 0.00 88 1013.6
20260508094520 8 52 0.0 4.8 0.00 0.53 0.00 86 1013.4
20260508093018 8 64 0.0 4.8 0.00 0.53 0.00 86 1013.4
20260508091517 8 75 0.0 6.4 0.00 0.53 0.00 88 1013.4
20260508090024 8 285 0.0 3.2 0.00 0.53 0.00 87 1013.3
20260508084514 9 116 0.0 4.8 0.00 0.53 0.00 86 1013.4
20260508083011 9 256 0.0 6.4 0.00 0.53 0.00 86 1013.1
20260508081509 9 183 0.0 9.7 0.00 0.53 0.00 87 1013.1
20260508080012 9 322 0.0 4.8 0.00 0.61 0.00 88 1012.9
20260508074516 9 296 0.0 4.8 0.00 0.61 0.00 88 1013.0
20260508073004 10 328 0.0 8.0 0.00 0.61 0.00 88 1013.0
20260508071503 10 3 0.0 14.5 0.00 0.61 0.00 87 1012.8
20260508070104 10 234 0.0 8.0 0.00 0.61 0.00 87 1012.8
20260508064600 10 101 0.0 4.8 0.00 0.69 0.00 86 1012.5
20260508063056 10 232 0.0 9.7 0.00 0.69 0.00 86 1012.5
20260508061555 10 333 1.6 11.3 0.00 0.69 0.00 85 1012.4
20260508060054 10 82 0.0 4.8 0.00 0.69 0.00 85 1012.4
20260508054553 10 240 0.0 9.7 0.00 0.89 0.00 84 1012.4
20260508053114 10 267 0.0 11.3 0.00 0.89 0.00 84 1012.4
20260508051550 10 319 0.0 6.4 0.00 0.89 0.00 83 1012.4
20260508050047 10 107 1.6 11.3 0.00 0.89 0.00 82 1012.2
20260508044546 10 91 0.0 9.7 0.00 0.97 0.00 82 1012.1
20260508043044 11 360 3.2 14.5 0.00 0.97 0.00 82 1011.8
20260508041607 10 301 1.6 16.1 0.00 0.97 0.00 82 1011.7
20260508040046 10 246 1.6 14.5 0.00 0.97 0.00 82 1011.5
20260508034538 11 302 3.2 11.3 0.00 0.97 0.97 83 1011.7
20260508033034 11 18 1.6 14.5 0.00 0.97 0.97 82 1011.8
20260508031537 11 277 4.8 14.5 0.00 0.97 0.97 82 1011.9
20260508030035 11 304 3.2 14.5 0.00 0.97 0.97 81 1011.7
20260508024531 11 266 3.2 14.5 0.00 1.14 0.97 81 1011.8
20260508023033 11 153 0.0 9.7 0.00 1.14 0.97 81 1011.6
20260508021529 11 96 0.0 12.9 0.00 1.14 0.97 80 1011.3
20260508020038 11 283 3.2 11.3 0.00 1.14 0.97 81 1011.3
20260508014528 11 86 0.0 4.8 0.00 1.35 0.97 81 1011.1
20260508013026 11 87 0.0 4.8 0.00 1.35 0.97 81 1011.0